Location: Caltech
(34.1382°N, 118.1253°W)
Time: 17:34:46
(UTC-07:00)

Hamsat - Visible Passes

Search period start: 27 March 2017 00:00
Search period end: 06 April 2017 00:00
Orbit: 585 x 619 km, 97.6° (Epoch: 26 March)

Date Brightness Start Highest point End Pass type
(mag) Time Alt. Az. Time Alt. Az. Time Alt. Az.
27 Mar ? 05:15:06 10° N 05:19:17 64° WNW 05:21:20 29° SSW visible
28 Mar ? 03:53:31 10° ENE 03:55:06 12° E 03:56:38 10° ESE visible
28 Mar ? 05:27:00 10° N 05:31:03 45° WNW 05:33:26 22° SW visible
29 Mar ? 04:04:15 10° NE 04:06:59 17° E 04:08:44 13° ESE visible
29 Mar ? 05:38:59 10° N 05:42:47 32° WNW 05:45:32 16° SW visible
30 Mar ? 04:15:28 10° NE 04:18:51 23° E 04:20:49 17° SE visible
30 Mar ? 05:51:05 10° NNW 05:54:30 24° WNW 05:57:38 11° WSW visible
31 Mar ? 04:26:53 10° NE 04:30:42 31° E 04:32:55 20° SE visible
31 Mar ? 06:03:20 10° NNW 06:06:12 18° WNW 06:09:05 10° WSW visible
01 Apr ? 04:38:26 10° NNE 04:42:32 44° E 04:45:00 21° SSE visible
02 Apr ? 04:50:06 10° NNE 04:54:20 63° E 04:57:04 21° S visible
03 Apr ? 05:01:50 10° NNE 05:06:08 88° ESE 05:09:09 19° SSW visible
04 Apr ? 05:13:39 10° N 05:17:54 66° WNW 05:21:13 16° SSW visible
05 Apr ? 03:52:08 10° ENE 03:53:41 12° E 03:55:16 10° ESE visible
05 Apr ? 05:25:33 10° N 05:29:39 46° WNW 05:33:17 13° SW visible
